Theta_e
338 338 338 338 338 338 338 338 338 338 338 337 337 337 337 336 336 335 334 334 334 333 333 333 333 333 334 333 334 333 333 333 333 334 333 333 333 333 332 331 331 331 331 329 330 330 330 329 329 327 325 325 325 324 325 325 324 323 322 321 319 319 318 316 313 310 308 310 312 310 311 310 307 309 308 308 310 311 309 309 309 311 312 312 312
337 338 338 338 338 337 338 338 338 338 337 337 336 337 336 336 336 335 334 334 334 334 334 334 334 334 334 334 334 334 334 334 333 333 333 332 332 332 331 330 331 331 329 330 329 330 330 329 329 327 327 327 326 325 325 325 324 322 321 321 319 318 319 316 313 311 309 307 308 308 308 309 307 307 308 307 309 308 306 306 307 309 310 309 310
338 338 338 338 337 338 337 337 338 337 337 337 336 336 337 336 336 335 335 334 335 335 334 334 334 334 334 334 334 334 334 334 333 333 333 332 332 331 331 330 330 330 329 330 330 329 329 328 328 327 327 326 325 326 325 324 324 322 321 321 320 319 317 317 311 309 308 307 307 306 307 307 308 306 307 308 309 308 305 304 304 306 309 308 308
338 338 338 337 337 337 336 336 336 337 337 337 337 337 337 336 336 336 336 335 335 335 335 335 334 334 334 334 334 334 334 334 333 333 333 333 332 331 330 330 330 331 331 331 330 328 329 328 328 327 326 325 325 324 324 325 324 323 321 319 319 317 316 314 314 310 308 306 304 306 306 306 306 306 307 308 308 306 305 305 304 305 307 306 306
337 338 337 337 337 337 336 336 336 336 337 337 337 337 337 337 336 336 336 335 335 335 335 335 335 335 334 334 334 334 334 334 333 332 332 333 332 332 330 330 330 330 331 331 331 329 329 328 328 327 325 324 323 323 323 323 323 322 320 318 318 316 315 314 311 310 309 308 305 305 306 306 303 305 306 305 305 304 303 303 302 303 305 305 304
337 337 337 337 337 336 336 336 336 336 336 337 337 338 337 337 336 336 336 336 336 336 335 335 335 335 335 335 335 335 334 333 333 332 332 332 332 332 331 330 330 329 329 329 329 328 328 328 328 326 325 323 323 323 323 323 322 321 319 318 316 315 314 313 311 311 310 308 306 303 305 305 304 304 305 306 304 302 301 301 301 301 302 302 302
336 336 336 336 336 336 336 336 336 336 336 337 337 337 337 337 337 336 336 336 336 335 336 336 336 336 336 336 335 335 334 334 333 332 332 331 331 330 329 329 328 328 328 328 328 328 327 327 326 326 325 324 323 323 322 322 321 321 320 318 316 314 313 313 310 309 309 306 305 305 304 305 305 302 303 305 305 304 302 300 299 300 301 301 301
334 335 336 336 336 336 337 337 336 337 337 338 338 338 338 338 337 338 337 337 336 336 336 336 336 336 336 336 336 335 335 334 333 333 332 331 330 330 329 328 328 327 326 326 326 326 325 325 325 325 325 324 323 323 323 322 321 321 321 318 316 314 313 312 310 308 307 306 306 304 304 303 302 301 303 303 302 302 302 302 300 300 299 300 301
332 333 334 335 335 336 337 337 337 336 336 337 338 338 338 338 338 337 337 337 337 337 337 337 336 336 336 336 336 336 335 334 334 332 331 330 330 329 329 328 327 326 325 324 323 324 324 324 324 324 325 325 321 320 321 322 322 320 320 318 316 315 313 313 311 308 307 306 305 305 304 303 302 300 300 301 301 303 303 302 302 303 301 299 300
332 332 332 334 335 336 336 336 336 336 335 336 337 338 338 338 338 337 337 337 337 337 337 337 337 336 336 336 336 335 335 335 328 320 322 330 330 330 329 328 327 326 325 323 321 321 322 322 322 324 323 322 318 313 310 313 317 321 320 319 317 315 314 313 311 309 307 306 306 304 303 302 301 300 300 302 304 304 302 301 301 301 300 299 300
331 332 332 332 333 334 335 335 336 335 335 336 336 337 337 337 337 338 337 337 337 337 337 337 337 337 337 336 335 335 335 334 316 309 310 315 328 330 328 327 326 326 325 323 321 319 319 321 321 324 323 322 319 309 307 307 308 310 311 313 317 317 315 313 312 310 308 308 306 304 305 304 303 302 302 302 302 303 303 302 302 300 299 297 297
330 330 331 331 332 333 334 335 335 335 335 335 336 336 337 337 337 337 338 337 337 337 337 337 337 337 337 337 336 335 335 323 309 307 307 308 317 330 329 328 325 325 324 323 322 320 319 318 319 321 322 322 321 315 310 306 304 304 304 305 305 307 309 315 314 311 310 309 306 305 306 306 305 303 302 302 301 302 302 302 301 300 299 299 300
329 329 328 327 327 326 324 325 327 330 333 335 336 336 336 337 337 337 337 338 337 337 337 337 337 337 337 336 336 336 334 315 306 306 306 306 307 321 330 328 326 325 324 323 322 321 319 318 317 318 321 323 322 318 316 313 306 304 305 306 305 304 301 302 306 316 315 313 311 307 306 307 306 305 304 304 304 301 301 300 301 301 301 300 301
328 329 328 327 326 325 326 326 326 325 326 328 330 334 335 336 337 337 337 337 337 337 337 337 337 337 337 336 336 336 335 315 304 305 305 304 304 312 331 328 327 326 324 323 322 321 320 319 317 317 317 321 321 318 316 316 314 312 312 312 314 313 305 300 301 303 310 316 315 313 311 310 309 309 308 306 303 302 301 301 302 301 300 301 304
327 328 327 327 326 323 323 323 324 325 325 326 327 328 330 336 336 336 336 336 336 336 336 336 336 336 336 336 336 335 336 310 303 303 304 303 303 308 331 329 327 325 324 323 322 321 320 320 319 319 317 318 319 317 316 316 315 314 314 313 314 315 315 314 313 313 314 316 317 317 316 311 312 312 311 307 306 306 305 304 303 303 304 304 301
326 327 325 325 324 324 323 323 323 324 326 325 326 327 328 333 335 335 335 336 336 337 337 337 336 335 336 336 335 334 335 304 302 302 303 303 302 316 329 328 326 324 323 322 321 320 319 319 319 319 317 317 314 305 311 315 314 314 313 314 314 314 314 313 308 308 315 317 317 318 318 314 306 313 311 308 308 309 309 306 305 304 301 300 300
326 326 326 325 325 325 325 326 326 326 328 328 327 328 332 334 334 335 334 335 335 335 335 335 336 336 335 335 334 333 332 308 301 302 303 302 303 320 328 325 323 322 321 320 320 318 317 318 319 318 317 316 309 300 301 309 314 313 313 312 310 309 310 306 297 295 296 298 300 301 302 301 300 300 299 299 305 307 307 304 302 302 300 299 300
326 326 326 326 327 327 328 328 328 329 330 330 330 331 332 334 335 334 334 334 334 335 335 336 336 336 334 334 334 333 332 315 300 302 302 301 308 322 325 322 321 321 320 319 318 317 316 317 318 317 316 315 303 298 298 308 314 313 312 311 308 306 307 304 301 300 294 294 294 295 296 298 297 297 298 297 298 303 306 303 304 302 301 301 300
323 324 326 326 327 328 328 329 329 329 329 329 330 330 331 333 335 335 336 336 335 335 334 335 335 335 334 334 326 331 333 318 300 302 301 301 307 324 323 322 321 321 320 317 315 315 315 316 315 314 315 312 300 297 296 307 315 314 312 311 310 308 310 305 303 302 302 303 304 304 303 302 305 306 306 297 298 304 307 308 306 302 302 301 302
321 323 325 326 326 326 327 327 328 328 328 328 328 331 333 333 333 333 334 335 335 334 332 334 334 333 333 332 331 331 332 325 307 300 302 301 303 323 323 322 321 321 319 317 314 312 312 313 311 302 302 301 298 296 296 299 313 313 312 311 310 309 310 304 304 305 304 305 305 305 307 306 307 306 307 304 303 307 307 308 307 305 305 303 302
319 321 322 323 324 325 327 327 326 327 328 329 330 330 331 332 331 332 332 333 332 331 331 332 333 332 332 332 332 331 332 330 314 299 301 301 301 313 323 323 324 322 320 317 317 315 312 312 313 304 298 299 297 295 296 296 303 313 310 311 311 310 303 306 304 304 304 304 302 302 302 303 304 305 305 304 303 305 306 306 307 306 306 305 302
315 316 317 319 322 324 327 328 329 330 331 331 330 329 330 332 331 332 332 331 331 331 331 328 331 332 332 330 331 331 328 321 323 301 300 300 300 307 321 324 323 324 320 319 318 317 315 313 313 307 298 298 297 296 295 296 296 310 309 301 300 296 306 307 305 304 303 303 302 301 301 301 302 303 303 304 303 304 306 306 305 306 307 308 305
310 312 314 315 317 321 324 326 328 331 330 330 330 329 328 329 329 330 329 329 329 330 330 330 331 331 332 331 329 330 329 324 310 309 299 299 299 302 308 316 308 321 322 320 319 318 317 315 313 305 298 297 297 296 295 295 297 305 299 296 297 295 300 304 303 303 302 302 301 302 301 301 301 301 302 302 303 304 304 306 305 305 306 306 307
307 308 310 313 315 316 319 322 326 328 327 327 328 328 325 327 328 329 328 328 329 329 330 331 331 331 331 331 330 328 327 327 310 306 305 298 299 300 303 306 306 318 322 323 322 320 318 316 312 301 298 297 296 296 295 295 299 298 297 296 295 296 305 302 301 302 300 300 300 301 301 300 301 300 301 302 303 302 303 303 303 303 304 305 304
306 307 308 309 311 314 316 319 321 322 324 325 324 324 323 324 325 325 326 327 328 329 330 331 330 330 330 331 331 330 328 325 322 308 301 299 298 298 300 302 302 304 318 322 322 320 310 305 302 299 298 297 296 296 295 295 295 296 296 295 299 302 303 302 302 301 301 300 301 302 301 300 301 301 300 299 299 299 300 300 300 300 301 302 301
305 306 307 308 310 312 313 315 317 320 320 323 324 325 325 324 325 325 327 327 328 328 329 329 329 330 330 331 331 330 327 325 323 317 305 304 300 298 299 300 303 302 310 319 310 307 303 301 300 298 298 298 300 301 302 300 295 295 295 297 304 302 302 302 301 300 301 301 300 300 301 300 298 297 297 298 300 300 300 300 300 300 301 301 301
306 305 306 307 308 311 312 313 314 314 316 318 320 322 323 325 324 322 325 327 327 328 328 326 328 328 328 330 330 328 325 322 322 319 313 312 310 306 302 303 301 300 305 309 308 311 308 304 303 298 300 297 298 298 299 298 297 298 300 302 303 302 301 302 302 301 302 301 300 301 301 299 296 296 298 299 300 299 299 300 301 300 300 301 302
306 306 306 307 308 310 311 305 311 315 316 319 319 318 320 322 322 322 323 325 326 326 326 325 325 326 327 328 328 325 323 321 321 319 316 314 313 313 310 309 309 309 313 314 315 313 308 300 299 302 303 301 302 301 301 301 299 299 300 301 302 301 301 302 301 302 303 302 302 300 296 296 298 298 297 298 299 298 298 299 300 298 299 300 300
305 305 305 306 307 307 309 310 312 314 315 316 319 321 321 320 321 322 324 326 327 327 326 327 326 328 329 328 327 325 323 322 322 312 317 307 311 315 313 312 312 313 311 308 314 307 304 304 302 302 303 301 300 301 300 300 299 299 300 300 301 301 300 300 300 300 300 299 299 298 297 297 298 297 296 297 297 297 297 299 299 300 297 299 301
303 303 303 304 305 305 306 307 309 310 313 315 315 313 305 308 316 322 321 309 307 309 311 324 327 328 327 328 329 328 326 327 312 305 305 303 302 305 306 306 305 310 307 302 306 309 307 306 304 304 304 303 302 300 300 300 300 299 299 296 299 300 299 299 300 300 299 299 299 297 297 296 296 296 296 297 297 296 296 295 298 298 298 297 298
300 300 301 302 301 303 304 305 307 309 310 312 314 314 316 312 302 302 307 308 304 302 302 306 307 309 321 326 322 311 312 311 308 303 302 301 300 301 301 301 301 301 300 300 308 306 304 302 303 305 304 305 304 303 301 300 298 299 299 298 299 298 296 299 299 297 294 296 295 297 296 295 296 295 296 296 297 296 295 296 296 297 298 297 297
301 300 300 300 299 300 302 303 305 307 309 310 311 311 312 313 314 305 298 297 298 298 299 300 302 301 304 312 319 324 308 304 303 300 301 301 300 299 299 299 299 297 297 301 304 304 306 306 304 305 305 305 304 303 302 302 301 301 300 296 297 297 297 298 299 299 297 296 292 293 293 295 296 295 295 295 293 295 296 295 295 295 296 296 297
300 299 299 300 299 298 300 301 302 305 307 309 309 310 311 310 311 312 308 299 297 297 297 299 300 301 301 303 306 311 311 308 303 301 300 300 299 299 299 299 297 296 297 303 305 303 306 309 310 308 306 306 307 305 303 303 302 302 301 299 298 297 298 300 297 299 296 297 295 294 293 293 293 292 291 291 292 291 294 294 295 295 295 294 292
300 300 300 300 300 300 300 301 302 304 306 308 310 311 311 312 312 311 312 311 311 304 298 296 298 300 300 302 303 303 304 303 303 302 301 300 299 299 297 295 294 296 300 306 308 307 309 310 310 310 309 307 308 305 303 303 303 302 301 301 302 300 298 299 297 296 294 295 295 293 292 293 292 292 292 291 293 294 293 293 295 294 294 294 294
305 298 293 297 302 302 303 303 303 305 306 307 308 309 311 311 312 312 312 311 313 314 317 315 303 297 305 303 301 301 301 302 302 301 300 300 297 295 296 300 298 298 300 306 308 310 310 309 310 310 309 307 306 304 303 303 302 301 301 301 301 300 298 296 296 297 295 295 295 294 291 292 294 292 291 291 291 291 292 292 294 295 294 294 294
313 310 306 302 303 305 305 306 306 306 307 308 309 310 309 310 310 312 311 311 313 314 314 317 317 302 298 300 301 300 299 300 300 297 297 296 295 297 300 300 302 302 301 305 307 308 309 310 310 311 310 308 307 305 304 303 303 302 303 301 299 298 297 296 295 295 296 296 294 293 292 292 293 291 293 293 294 293 292 292 292 292 294 294 293
315 314 312 310 307 307 307 308 308 308 303 304 310 310 310 311 310 314 313 315 314 315 318 316 311 309 301 304 302 299 298 298 298 296 295 295 295 301 309 306 306 305 302 304 306 308 309 310 311 312 311 308 306 306 304 304 304 303 300 301 300 299 298 297 296 294 294 293 293 293 292 291 292 292 292 291 291 292 293 293 292 290 291 291 289
302 301 308 313 312 310 310 310 310 300 306 308 311 313 312 314 314 313 313 314 314 314 317 317 309 316 314 311 309 303 296 293 293 294 294 294 293 301 307 308 306 307 306 307 307 308 309 311 312 312 312 310 308 307 306 304 303 303 301 300 300 299 295 294 292 295 293 293 292 291 291 291 291 291 290 291 291 290 291 290 291 290 289 289 290
302 292 289 290 297 309 311 311 308 309 310 310 312 312 310 314 315 315 317 317 314 315 313 316 316 315 316 304 299 300 300 302 302 299 297 299 300 303 306 309 309 308 309 308 306 306 309 311 311 311 311 309 307 307 305 304 303 303 302 300 299 297 295 294 293 293 292 292 291 291 291 291 290 291 291 291 290 290 290 290 290 290 290 289 290
302 301 295 293 299 299 302 300 303 305 303 308 310 311 312 312 316 316 316 314 314 312 313 314 313 311 305 303 301 304 308 306 305 305 299 298 299 302 305 307 309 310 309 310 310 309 308 311 312 310 309 309 307 306 304 303 303 302 301 298 297 295 294 294 293 293 292 292 292 291 291 291 291 291 290 291 291 290 290 290 290 290 290 290 289
303 301 295 295 295 300 299 301 301 302 303 302 304 304 303 304 305 305 308 307 306 307 307 304 300 299 300 300 296 299 309 309 307 304 300 299 300 301 303 307 308 310 310 309 310 310 309 309 309 308 307 306 306 305 304 303 301 299 299 296 296 295 295 294 293 292 292 291 291 291 291 291 290 290 290 290 291 291 290 291 290 290 289 289 290
302 301 301 300 298 299 299 298 299 299 300 298 301 302 301 301 302 301 300 301 299 302 299 297 297 297 294 293 294 297 304 305 304 302 302 300 300 301 301 304 306 306 306 307 308 307 307 305 306 305 305 304 304 302 301 301 300 299 297 296 295 294 293 292 292 291 291 291 291 291 291 291 290 291 291 291 290 290 290 290 290 290 289 289 289
300 300 301 299 300 300 299 300 300 300 299 299 299 295 297 301 301 301 299 298 298 298 298 297 297 296 294 290 293 295 301 303 299 302 301 300 300 300 301 302 303 304 305 306 307 308 305 304 303 303 302 303 303 301 299 298 297 297 296 295 295 294 294 293 292 291 292 291 291 290 290 290 290 290 291 290 290 289 290 289 289 289 288 288 288
300 300 299 299 300 300 299 301 300 299 299 296 296 296 298 299 299 299 299 298 298 298 297 296 296 296 296 294 294 297 300 300 301 302 301 299 300 300 301 302 302 302 303 304 306 304 304 303 301 302 302 302 303 302 301 300 299 297 295 295 293 292 292 292 291 291 292 292 291 290 289 289 289 290 289 289 289 289 289 289 289 289 288 288 288
301 300 300 300 300 300 300 300 300 299 298 298 301 300 298 300 299 298 298 298 297 297 297 296 296 296 296 297 298 299 300 300 297 298 299 301 299 300 302 301 301 302 301 300 300 301 302 301 302 301 299 302 303 302 302 301 300 299 297 295 293 292 292 292 292 292 292 291 291 290 290 290 289 290 290 290 289 289 289 289 289 287 288 288 288
299 299 298 299 299 298 298 300 297 300 299 300 300 300 300 300 300 298 297 298 297 298 299 298 298 298 297 298 298 297 299 299 299 299 298 299 300 302 302 300 301 302 302 301 302 303 302 302 300 300 299 301 302 302 302 301 300 299 299 298 297 296 296 296 295 292 291 292 292 291 291 290 290 290 289 290 290 290 290 289 289 289 289 289 289
298 297 297 298 298 298 297 297 298 298 299 298 298 298 299 299 299 298 296 296 297 297 299 300 300 300 300 300 300 300 299 298 298 297 295 296 300 300 298 298 298 299 299 300 302 302 302 302 303 302 302 302 303 303 302 301 300 299 298 299 299 299 298 296 295 294 294 294 293 292 292 291 290 290 289 289 289 289 289 289 289 288 289 289 289
296 296 296 295 297 297 297 298 297 294 298 297 297 297 297 298 298 298 299 299 299 299 299 300 300 301 300 300 300 300 299 299 297 296 293 294 296 296 297 298 297 297 298 298 299 298 299 300 301 301 300 300 299 301 300 300 300 300 300 299 299 299 296 293 296 296 295 294 294 293 292 292 291 291 290 290 290 289 289 289 289 289 289 289 289
293 294 294 294 294 295 295 295 295 296 297 297 297 297 296 297 297 298 298 298 299 299 300 299 299 299 299 299 299 299 299 297 300 299 296 295 296 297 296 296 294 296 296 297 296 297 297 298 298 298 299 299 300 300 299 299 299 299 299 299 297 292 291 292 293 295 292 293 292 293 292 292 291 290 289 289 289 289 290 290 289 289 289 289 289
292 292 292 292 292 292 293 294 294 295 295 295 295 295 295 296 296 296 297 297 297 298 299 298 298 299 299 298 297 298 299 298 298 299 298 296 296 296 297 297 297 296 295 295 295 296 296 296 297 297 296 297 297 298 297 298 298 298 297 297 291 290 291 291 291 290 292 292 292 292 292 291 291 290 290 290 289 289 289 289 289 289 289 288 288
291 291 291 291 291 291 291 291 292 292 292 292 293 293 292 293 294 294 295 296 296 296 296 298 298 298 298 298 296 297 297 298 298 298 298 297 296 296 296 296 296 295 295 295 295 296 296 296 296 296 295 294 296 296 296 295 295 295 293 291 290 290 290 291 292 290 290 290 292 291 291 290 290 289 289 289 289 289 289 288 288 289 289 289 288
Wind_Speed
13 13 11 10 9 12 13 12 12 10 9 9 9 10 11 11 9 8 6 8 8 9 10 10 9 9 9 9 10 9 9 8 7 7 8 8 7 8 8 8 8 7 6 6 5 6 6 6 5 4 6 5 5 4 4 5 5 4 4 4 5 4 5 6 6 2 1 1 4 4 5 7 5 6 7 5 6 5 4 4 5 5 5 5 5
13 13 11 11 12 11 11 11 11 9 9 9 10 10 9 8 8 7 9 9 9 10 10 9 9 9 9 9 9 9 9 9 9 8 8 8 8 7 7 8 8 7 7 7 6 5 6 6 5 5 6 6 5 5 5 5 5 5 5 5 6 5 5 5 5 5 4 1 3 2 4 5 5 5 7 8 6 5 6 5 4 4 5 4 5
12 11 11 11 12 10 8 8 10 11 11 10 10 10 10 9 7 9 9 8 8 9 9 9 10 10 10 10 10 10 10 10 9 9 9 9 9 8 8 8 9 8 8 8 7 6 6 6 6 5 4 5 5 5 5 5 5 5 6 5 6 5 5 5 5 4 5 3 2 4 4 5 4 6 6 5 5 5 7 6 5 4 3 4 5
12 12 12 12 11 10 10 9 9 10 12 11 12 11 10 8 7 9 9 7 8 8 7 8 9 10 10 10 10 10 10 9 9 9 10 10 9 9 9 9 8 8 9 8 8 8 8 7 6 6 6 5 5 5 5 5 5 5 6 5 5 5 5 5 5 5 3 5 3 4 4 6 2 3 4 4 5 5 4 3 2 4 4 3 4
12 13 13 13 12 12 12 12 12 12 12 11 12 11 10 9 8 10 9 9 9 8 7 7 8 10 10 11 10 10 9 9 9 9 8 8 9 9 9 9 9 9 9 8 7 8 8 8 7 6 7 6 6 6 5 6 6 6 6 5 5 4 4 5 4 4 6 6 4 1 3 2 2 3 6 7 4 3 2 4 4 5 4 3 2
13 13 13 14 14 14 13 12 14 14 13 11 11 10 10 10 10 9 10 10 9 8 9 8 8 9 9 9 10 10 9 9 9 9 9 9 8 8 8 9 9 9 8 8 8 8 8 8 7 7 7 8 7 6 7 8 7 6 6 6 4 5 5 5 4 5 6 5 6 5 3 5 3 2 6 5 7 5 3 2 2 3 4 4 4
12 13 13 13 13 14 13 13 12 12 11 10 7 7 9 9 10 10 9 9 9 8 8 9 8 9 8 7 8 9 9 9 9 9 9 9 9 8 8 8 8 8 8 8 8 7 7 7 7 8 8 8 8 8 7 8 7 8 7 6 5 6 6 5 5 5 6 6 3 2 4 2 3 4 4 4 3 4 7 5 5 4 4 6 5
13 13 13 13 13 14 14 14 13 11 9 9 8 8 8 8 9 8 8 9 10 10 9 9 8 7 8 8 8 8 9 9 9 9 9 9 8 8 8 8 8 8 7 7 7 7 8 8 8 8 8 9 8 8 9 9 7 8 6 5 6 7 6 6 5 5 5 5 4 5 4 4 3 3 4 5 5 3 6 6 9 8 7 5 6
14 13 13 14 14 14 13 13 13 13 12 11 10 10 10 10 9 8 8 9 8 9 8 8 8 8 8 8 8 8 9 9 8 9 9 9 9 9 9 9 8 8 7 7 7 7 7 7 7 8 9 10 12 10 11 9 9 9 7 6 7 7 6 6 5 6 5 5 5 4 5 5 5 6 7 8 11 9 6 6 5 4 4 5 4
15 14 14 14 13 13 12 11 11 12 13 12 12 11 10 9 9 9 10 9 9 9 9 9 9 10 10 8 8 8 8 7 9 14 12 10 10 9 8 8 8 8 8 7 6 6 7 7 7 13 13 12 12 13 13 13 12 10 9 9 8 7 7 7 6 6 6 6 6 7 7 7 7 8 8 7 5 4 7 7 7 4 4 3 3
14 15 15 14 12 11 11 12 11 12 12 12 11 11 11 10 10 10 10 10 10 9 9 10 11 10 10 9 9 9 8 8 14 15 16 16 11 9 9 9 9 8 8 9 9 8 7 7 6 10 11 11 11 14 13 14 13 12 12 12 12 11 10 8 7 7 7 6 5 6 8 8 8 7 8 6 7 8 7 8 6 5 6 7 8
14 13 13 11 9 9 7 9 11 10 10 10 11 11 10 10 11 11 11 11 10 9 10 11 11 9 8 9 9 9 9 11 17 17 17 17 14 10 9 8 8 8 8 9 8 7 8 7 6 6 7 9 8 9 11 13 13 13 13 13 13 14 14 12 9 7 7 7 7 8 7 8 7 7 6 6 7 6 5 6 8 8 7 8 6
13 12 10 11 11 11 10 9 7 6 4 6 8 8 9 11 12 12 13 12 11 11 11 10 10 9 9 10 10 9 8 12 16 18 18 18 18 13 8 9 9 9 9 9 9 8 7 7 7 6 6 13 10 8 9 9 10 13 12 13 13 14 14 13 13 12 8 8 8 9 9 7 8 9 9 9 7 7 6 6 7 7 7 6 8
13 13 13 12 11 11 13 13 13 11 9 4 1 4 8 12 12 12 11 10 11 11 10 11 10 10 11 11 10 9 10 13 17 18 19 19 18 15 9 10 10 10 10 10 9 9 9 9 8 7 7 8 8 9 8 8 9 8 7 7 7 10 12 13 13 13 11 9 9 9 8 8 10 9 11 10 11 10 9 9 7 7 9 13 6
12 11 12 13 14 12 11 10 12 13 13 11 9 9 12 12 11 10 9 11 11 12 12 11 11 11 11 10 10 10 10 15 17 18 18 20 19 16 10 9 9 9 9 9 10 10 10 9 10 10 9 8 8 10 10 10 9 8 8 8 8 9 10 9 9 8 8 7 8 8 8 9 11 10 8 10 13 12 13 13 13 10 4 4 3
13 11 11 12 13 13 13 12 11 10 11 12 13 13 15 15 13 10 9 9 10 10 10 10 10 11 11 11 11 11 8 15 17 18 19 19 19 12 10 9 9 9 9 9 9 9 9 10 9 9 9 9 11 16 13 10 10 9 9 9 9 8 9 7 9 10 10 9 8 8 7 10 12 10 9 10 8 5 5 5 6 6 7 6 6
13 13 13 13 14 14 13 13 12 12 12 13 14 16 17 14 12 10 10 10 10 11 11 11 10 10 11 10 11 10 8 13 18 19 20 20 14 11 10 3 3 4 7 10 10 9 9 10 10 9 9 9 11 15 15 12 9 10 9 9 7 7 9 5 4 6 8 10 10 9 8 9 12 12 13 16 12 9 7 6 7 8 7 7 5
13 13 13 13 14 14 14 14 14 14 14 15 16 16 15 12 11 11 12 11 11 11 10 10 10 9 10 10 11 11 10 11 18 18 20 20 15 11 7 7 11 12 10 7 7 7 9 14 11 10 10 10 12 15 15 13 9 10 9 8 8 7 8 4 3 3 4 6 8 11 12 11 11 13 14 15 14 12 10 10 9 8 8 8 8
13 13 13 13 12 13 13 13 13 14 13 13 14 14 13 12 11 9 10 10 11 10 8 8 8 8 9 10 12 13 10 10 17 18 20 19 15 8 9 10 11 10 7 7 6 6 7 10 15 12 11 12 15 15 16 14 10 10 10 9 9 10 10 8 8 6 5 4 5 5 7 8 8 8 10 15 16 15 12 11 7 9 9 8 6
14 14 13 12 12 11 11 12 13 14 16 16 14 13 11 10 9 9 9 9 9 8 7 7 8 9 8 9 9 11 11 8 13 19 19 19 19 11 10 12 12 12 9 8 8 6 7 7 10 14 15 15 15 16 17 18 12 10 8 9 9 12 6 7 8 7 7 7 6 6 7 5 6 5 5 6 8 11 12 9 8 9 8 8 8
13 12 11 11 12 13 12 13 14 13 12 12 12 10 9 9 9 9 9 7 6 6 7 7 7 7 7 8 9 9 10 10 11 18 19 19 19 16 11 14 12 10 9 9 9 10 9 8 8 14 16 15 16 18 18 19 16 10 11 10 12 8 8 7 8 7 7 6 5 4 3 3 4 5 5 5 7 7 8 9 8 10 9 7 8
10 9 10 11 12 13 13 12 12 11 10 10 10 10 9 9 9 10 9 8 9 8 7 6 7 7 7 7 8 9 9 12 8 14 18 18 20 21 13 14 14 10 9 10 10 10 11 10 10 14 19 18 17 18 19 18 18 10 11 14 11 12 9 7 7 6 6 5 5 5 4 4 4 4 5 5 6 7 7 7 9 9 9 9 10
10 11 11 10 9 11 12 14 12 9 10 11 11 11 9 9 8 8 8 7 7 7 7 6 6 7 6 6 7 8 7 8 12 12 16 19 21 21 21 17 14 11 12 12 13 12 10 11 13 18 20 20 19 19 18 19 14 11 14 13 12 13 8 5 6 6 6 6 6 7 6 6 5 5 5 6 6 6 7 8 8 7 6 4 5
10 10 10 11 11 9 9 10 11 10 11 10 11 11 9 8 8 8 8 8 7 8 7 7 7 7 8 8 8 8 8 8 11 15 15 20 20 23 22 21 16 13 13 12 11 11 10 11 12 18 19 20 20 19 18 17 13 17 14 14 12 10 7 6 6 6 6 6 7 7 7 6 5 5 6 6 6 5 5 5 5 5 5 4 4
10 10 10 9 10 9 8 8 9 9 9 11 10 9 7 7 7 5 6 7 7 8 8 8 8 8 8 9 9 9 8 8 8 12 17 19 21 22 22 22 18 18 15 13 12 12 13 16 17 19 21 21 22 20 15 16 17 14 15 13 11 6 7 7 7 6 6 8 7 7 7 7 6 4 3 4 4 4 4 3 3 3 2 2 2
10 11 10 10 10 9 9 8 9 9 10 9 10 10 10 9 9 8 8 8 8 8 8 7 7 8 8 8 9 9 8 7 8 7 10 13 16 20 22 22 21 21 20 16 16 16 17 18 18 16 16 16 12 9 9 11 15 16 15 12 7 7 7 7 6 7 8 7 8 8 7 4 3 2 4 5 5 5 6 6 5 4 5 6 4
9 8 8 7 7 8 9 8 7 6 6 7 7 7 8 8 9 8 8 9 8 8 8 8 8 8 9 9 9 8 7 8 8 7 7 8 9 12 13 13 15 11 7 7 6 8 9 8 8 9 7 12 11 9 8 9 8 6 5 6 7 7 8 8 10 9 9 7 7 6 4 3 3 5 4 5 5 4 4 7 6 5 6 5 6
10 9 9 8 8 8 8 10 10 8 7 8 8 6 6 8 8 9 9 8 8 8 8 8 8 9 9 9 8 7 7 8 9 9 10 9 10 10 11 12 10 12 15 13 12 7 6 6 8 8 7 7 6 5 6 7 9 9 7 7 7 7 7 6 5 6 6 6 5 4 4 4 5 5 4 5 5 5 4 6 6 6 5 6 5
9 8 8 8 8 7 8 9 8 9 8 7 8 10 11 9 9 9 9 9 10 10 10 10 10 10 10 10 9 9 9 11 14 17 15 17 16 12 11 12 12 11 17 19 9 6 7 7 7 7 6 8 8 9 9 9 9 8 9 7 7 7 7 7 8 8 8 6 7 7 7 5 5 4 4 4 5 5 4 4 4 6 4 4 6
8 9 8 8 8 8 8 8 8 9 9 9 7 4 5 6 11 11 9 11 14 16 13 11 11 10 10 11 12 13 13 15 16 16 19 20 20 20 20 19 20 17 18 20 14 9 8 9 10 11 11 11 11 10 10 10 9 9 8 8 8 7 8 8 8 8 8 9 7 7 7 6 6 6 6 6 5 4 5 6 5 5 6 6 5
6 7 7 7 9 9 8 8 7 7 8 8 8 8 7 6 8 10 7 9 15 16 15 16 16 15 12 10 12 19 19 18 14 16 18 17 19 20 19 19 20 19 12 9 7 9 10 9 9 10 11 11 12 12 11 10 11 10 9 8 7 10 9 8 8 7 7 8 7 7 7 8 7 7 7 7 7 5 4 3 3 5 6 6 6
7 7 7 6 7 7 7 7 7 7 6 6 7 8 8 7 7 7 9 8 7 12 15 17 17 15 16 16 12 9 15 17 12 15 18 20 20 20 20 19 15 12 16 19 10 9 12 12 10 12 11 12 13 11 10 10 9 9 10 8 8 8 11 10 10 9 9 9 6 5 6 8 7 8 7 7 7 6 6 6 5 6 5 4 5
4 4 6 6 7 7 7 6 7 7 7 6 6 6 7 7 8 8 4 3 7 11 12 16 18 17 17 18 20 18 17 17 17 16 17 19 19 18 20 18 11 13 13 10 11 11 11 12 14 12 12 14 11 9 9 9 9 9 9 10 11 11 10 9 10 9 9 9 9 6 5 5 5 7 5 7 6 4 6 6 6 5 6 6 5
6 6 7 7 7 7 7 7 8 8 8 8 9 8 8 8 9 8 8 5 3 6 9 14 17 18 18 19 19 19 18 15 16 17 18 17 19 18 7 7 12 15 17 14 13 13 12 13 13 13 14 13 11 11 10 10 10 8 9 9 7 7 8 7 8 9 9 9 8 5 6 5 6 4 4 4 5 5 5 5 6 5 5 6 7
6 7 10 7 7 8 8 8 8 8 8 8 8 8 9 9 9 9 9 9 9 10 10 11 12 14 15 16 18 18 17 16 16 17 17 18 10 14 15 9 6 7 9 9 10 11 12 12 13 12 11 11 11 10 12 11 10 11 11 11 8 8 9 9 9 8 8 8 7 6 7 8 8 7 6 6 5 4 5 5 6 7 7 7 6
6 6 6 7 7 7 7 7 8 8 8 8 8 8 8 9 9 10 10 10 10 10 9 9 10 13 21 18 18 17 15 15 13 9 10 10 16 19 8 7 9 9 10 11 11 13 12 12 11 11 10 10 9 9 10 10 11 12 12 11 10 9 10 9 10 8 9 9 10 9 8 7 7 5 5 4 8 8 6 7 6 6 8 7 5
7 7 7 7 7 7 7 7 8 8 8 8 8 7 7 8 9 9 9 9 10 10 10 8 6 4 6 8 8 4 5 7 5 7 11 14 18 14 12 12 12 10 9 11 12 12 11 11 12 11 10 9 10 10 9 10 11 11 10 10 10 9 9 10 9 9 10 9 9 10 11 10 9 9 8 7 5 4 5 6 5 7 8 9 8
4 3 3 5 7 7 7 8 9 9 9 8 8 9 8 9 9 9 9 9 10 9 9 6 5 7 7 3 10 9 7 9 12 8 8 9 8 11 11 9 7 9 12 12 12 11 13 13 12 12 11 10 10 11 11 11 10 10 10 10 10 11 12 12 12 11 8 8 8 8 7 7 7 8 7 8 7 6 5 5 5 5 5 6 6
5 9 11 8 3 4 7 7 6 6 6 6 7 7 8 8 8 8 8 7 7 7 5 4 6 8 6 7 7 9 12 7 8 9 10 10 11 11 10 10 10 11 10 10 11 12 12 13 12 11 10 9 10 10 10 11 10 10 10 9 9 8 9 8 9 9 9 9 9 8 9 8 8 7 8 8 7 7 7 7 7 7 7 7 7
7 8 11 14 9 8 5 3 2 3 3 6 5 6 7 8 8 8 7 6 6 6 5 6 6 3 3 6 7 7 7 9 8 9 9 10 10 10 10 11 12 12 12 13 12 12 13 13 11 9 9 9 10 10 10 11 10 9 9 10 9 10 11 10 10 10 11 9 9 9 9 9 9 8 7 8 8 8 8 8 8 7 7 7 7
8 10 11 13 12 10 9 9 7 5 4 5 5 4 2 1 1 2 2 1 1 1 3 5 4 3 2 2 8 10 8 8 8 7 8 8 7 8 10 12 11 10 9 9 9 9 10 10 8 7 7 8 9 9 9 9 9 8 9 9 9 10 10 10 10 9 9 9 8 8 8 7 6 7 8 8 7 7 7 7 7 7 7 6 7
12 12 11 11 13 12 11 11 8 8 8 6 8 7 6 6 6 6 6 6 5 6 6 6 4 3 6 6 5 2 2 2 1 3 3 5 6 7 6 4 3 2 2 5 6 7 7 8 8 7 7 7 7 7 6 7 8 9 9 9 10 9 9 9 10 10 10 9 9 10 9 9 9 8 8 7 7 6 6 6 6 6 6 6 6
13 11 10 11 12 12 12 10 8 10 10 10 9 8 9 9 8 8 8 8 7 7 6 6 4 5 6 8 3 3 2 1 1 1 2 3 4 4 4 3 1 1 1 1 3 5 6 6 6 6 7 7 7 6 7 7 6 6 7 7 7 8 8 8 8 9 8 9 9 9 9 8 8 7 6 6 6 6 6 7 6 6 6 6 6
11 10 11 12 12 11 10 9 10 10 10 10 10 10 10 10 9 9 9 8 8 7 7 5 4 4 4 5 4 5 4 4 2 1 1 2 4 4 4 3 3 1 0 1 1 2 5 5 5 5 5 6 7 7 6 7 7 7 6 6 6 6 5 5 6 7 9 9 8 9 8 7 7 6 6 6 7 8 7 7 7 7 6 6 6
12 12 12 12 12 11 11 11 11 11 12 10 10 10 10 9 9 8 8 8 7 7 7 6 4 4 5 5 5 4 4 2 1 2 2 3 3 4 4 3 5 6 5 3 2 3 3 4 6 6 6 6 6 7 7 7 7 8 8 10 8 7 7 7 8 6 6 7 8 8 8 8 8 7 7 7 8 8 8 9 8 7 6 5 6
12 12 12 12 12 12 12 11 10 11 10 9 10 10 10 10 9 9 9 8 8 7 7 7 6 6 4 4 3 3 2 2 1 1 0 1 2 3 3 2 2 2 2 2 2 2 3 4 5 6 7 7 7 7 8 9 10 10 11 11 12 12 12 12 11 10 9 9 9 9 9 9 9 8 9 8 7 7 7 7 6 7 7 8 8
12 12 12 11 11 11 11 11 11 11 11 11 11 12 11 10 9 8 7 10 9 8 8 7 7 7 7 6 6 4 3 3 2 1 1 2 2 3 2 1 1 2 3 3 4 4 4 4 4 5 6 6 6 6 5 5 6 7 7 8 9 10 10 10 12 13 12 12 11 9 9 9 9 7 8 7 6 7 6 7 8 8 7 7 7
11 11 11 11 11 12 11 11 12 12 11 11 11 10 9 9 9 9 9 9 10 9 9 9 9 8 8 8 7 7 6 5 4 3 2 2 2 3 4 4 4 4 4 4 3 2 3 3 3 3 3 3 3 5 4 4 4 6 6 6 5 4 7 9 7 8 9 9 9 9 10 9 8 8 8 9 8 7 7 6 6 5 6 6 5
11 11 11 11 11 11 11 11 12 11 11 11 11 12 11 11 11 10 10 10 10 10 9 9 9 8 8 8 7 7 6 6 5 5 4 4 4 3 3 1 1 1 0 0 1 1 0 1 2 2 3 3 5 5 5 5 5 4 4 4 5 8 10 10 6 5 7 7 5 5 6 7 8 8 8 8 8 7 7 6 7 7 6 5 6
10 10 10 11 11 10 10 10 10 10 10 10 11 11 11 11 11 11 11 11 11 10 10 10 9 9 9 9 9 9 8 8 7 6 6 5 3 2 1 2 1 1 2 3 2 2 2 2 2 3 3 2 3 3 3 3 4 4 4 5 9 11 11 12 11 12 10 6 7 7 7 7 7 7 7 8 7 8 7 7 7 6 7 7 7
10 10 10 10 10 10 10 10 10 10 10 10 10 11 11 11 11 11 11 11 11 10 10 11 10 10 10 10 9 10 9 9 7 6 6 6 5 5 4 3 3 3 2 2 2 2 2 3 3 3 4 2 4 3 3 3 3 3 4 7 9 10 11 11 9 12 13 8 7 6 7 8 8 7 7 6 6 7 8 8 7 7 7 6 7
Wind_Direction
191 197 190 201 202 192 187 187 192 193 194 197 202 205 207 202 199 201 186 202 194 193 198 194 187 190 189 193 192 193 194 197 197 196 195 197 193 187 179 184 192 201 194 190 186 189 203 212 218 166 167 185 190 183 189 190 185 184 162 169 201 189 174 187 199 185 53 41 144 158 146 138 161 178 164 165 169 159 154 165 162 174 172 176 175
196 192 190 191 193 201 197 185 181 182 190 198 206 214 215 203 203 189 195 200 194 200 199 193 185 187 192 195 195 196 197 198 194 193 197 197 197 186 181 183 190 192 182 191 190 193 192 204 206 170 172 181 166 172 175 173 173 178 183 184 199 186 193 182 188 161 161 103 115 89 138 168 151 178 173 167 174 158 171 166 174 181 176 169 176
191 185 187 188 194 194 192 190 180 182 189 195 203 206 213 209 193 199 203 198 197 204 197 193 188 189 194 194 194 197 197 198 194 194 199 199 194 190 186 183 187 185 187 196 189 185 186 204 208 174 162 166 169 170 167 168 175 183 189 191 200 193 183 180 140 163 149 174 138 149 161 170 172 178 184 180 162 165 168 177 177 170 175 173 180
184 184 185 189 187 182 183 184 186 187 194 199 202 203 202 201 191 203 205 195 197 204 200 197 192 196 198 196 197 198 196 197 193 196 200 200 199 193 187 187 190 191 194 194 186 180 194 191 197 173 166 169 166 161 167 168 176 197 199 195 194 183 173 162 164 130 149 147 193 175 164 160 159 136 130 130 151 170 188 145 127 173 173 181 184
185 186 184 183 182 186 188 184 189 195 202 201 202 196 194 192 189 198 197 200 198 190 196 197 201 200 202 199 195 195 195 193 195 198 200 203 204 196 189 189 191 193 196 196 189 187 185 197 184 169 168 171 167 165 169 179 194 196 196 189 188 160 143 153 146 137 141 160 131 94 145 129 78 132 155 149 142 142 142 178 182 184 184 182 180
191 189 187 185 187 190 189 189 193 197 202 203 201 196 190 190 191 195 193 199 197 192 191 192 203 212 208 198 193 191 190 188 194 197 197 198 203 202 196 191 192 192 194 195 190 186 189 188 176 169 174 173 176 171 175 191 193 193 191 186 164 146 145 148 141 139 139 147 149 131 170 163 136 132 175 155 151 158 170 174 173 190 184 187 203
193 191 190 191 192 191 185 191 195 193 195 198 196 190 194 195 197 201 192 195 192 195 198 198 198 205 208 199 195 191 185 185 190 194 195 194 196 198 197 195 193 191 193 192 190 186 184 180 176 177 179 181 176 175 175 190 190 196 189 168 158 155 155 153 153 139 138 134 123 131 139 154 143 139 165 156 148 176 171 170 212 197 197 196 198
199 195 191 192 195 192 190 186 183 188 184 181 183 193 199 200 204 201 190 196 200 199 200 202 203 202 202 197 192 185 185 189 194 194 190 188 188 197 196 196 194 192 188 188 186 187 184 179 178 181 180 177 181 182 179 188 180 194 185 155 154 157 159 155 148 148 141 145 156 154 159 154 122 72 112 144 156 219 208 187 195 194 203 198 207
202 200 197 195 196 194 192 189 181 175 173 174 182 192 200 202 195 190 190 197 199 201 199 199 201 203 203 196 190 186 190 195 192 189 185 186 187 192 195 196 192 189 187 187 189 186 180 179 177 184 184 183 183 181 188 182 177 190 187 162 161 161 154 163 158 147 148 151 145 119 146 157 162 142 157 179 197 199 168 188 216 207 182 193 214
203 199 199 200 197 189 184 183 183 172 167 173 180 187 194 199 194 192 196 197 197 192 194 197 201 204 202 197 192 191 198 199 192 187 183 186 189 193 190 191 189 190 186 185 188 192 187 177 183 186 186 186 182 186 190 186 185 183 180 176 168 160 163 161 167 166 158 169 174 156 162 181 177 185 182 203 169 111 153 183 204 166 142 207 257
203 197 199 200 194 186 180 178 175 174 168 172 174 178 185 189 193 195 194 196 198 194 192 198 205 207 205 198 197 199 199 198 184 183 188 188 189 190 187 187 187 187 187 186 193 191 191 186 173 187 186 189 186 189 191 191 190 187 182 184 179 176 173 168 174 171 173 182 162 177 181 180 194 189 199 172 184 185 179 180 178 150 180 178 214
202 198 194 182 175 176 177 175 171 169 164 172 178 181 181 186 194 198 195 194 196 194 200 205 207 206 205 205 205 204 205 192 180 187 188 190 192 191 189 185 182 188 189 191 193 186 183 177 182 179 182 186 183 184 193 193 191 189 182 188 189 187 179 176 172 172 182 174 183 196 182 195 182 183 186 178 187 185 180 172 182 184 173 199 205
201 191 173 155 145 135 130 124 109 102 131 162 179 182 188 196 201 200 200 196 187 192 201 202 207 205 204 207 211 207 209 189 184 185 189 192 195 190 192 188 181 189 189 191 187 185 178 177 176 188 190 194 190 186 187 191 198 193 185 189 195 194 193 193 184 182 174 185 188 196 198 178 185 200 191 190 156 172 161 183 193 193 198 196 214
206 194 176 163 160 162 161 163 159 151 150 151 164 219 206 208 209 207 203 192 190 192 193 200 204 205 208 210 210 208 208 186 184 186 189 192 195 193 196 190 192 187 186 186 188 185 181 179 177 183 186 187 185 184 182 185 185 181 186 194 203 212 207 202 203 201 191 196 193 208 195 183 201 201 200 165 161 183 177 199 180 182 189 211 205
207 199 190 180 171 172 185 186 169 162 164 167 170 196 233 226 213 209 202 195 193 192 193 197 203 206 209 210 211 211 213 184 183 184 189 193 195 195 201 195 191 189 189 190 189 187 186 185 184 186 179 186 187 184 179 183 179 186 190 197 206 207 206 205 203 198 202 212 211 218 191 196 212 208 178 178 192 191 191 194 187 189 158 65 73
209 204 196 190 183 183 180 179 176 167 163 173 178 192 211 222 208 202 203 207 202 195 193 191 198 204 208 208 212 217 208 174 182 186 192 195 192 192 203 196 191 189 186 191 191 191 186 182 182 188 185 189 196 189 188 169 170 181 191 201 209 213 219 218 208 207 207 206 211 211 201 200 207 207 179 184 197 171 112 77 110 131 161 178 197
208 204 204 196 191 186 184 178 174 175 177 178 187 200 210 212 206 190 193 202 206 201 191 189 194 201 205 209 212 216 211 186 184 190 194 194 185 198 200 116 35 287 227 196 192 189 186 185 185 184 182 194 196 191 191 170 173 179 187 195 199 200 229 215 213 216 232 240 244 248 235 213 210 208 190 189 187 167 129 135 171 164 163 192 200
208 202 203 199 192 185 181 178 178 180 180 186 192 200 204 204 200 189 190 192 203 210 205 191 186 194 200 207 208 211 217 191 188 191 193 191 184 187 153 149 205 205 215 220 197 187 192 187 181 177 179 198 193 191 189 180 184 187 185 192 195 213 231 194 167 199 200 225 234 235 234 231 216 208 199 195 183 163 171 192 181 160 188 193 196
203 202 204 199 195 185 178 178 178 175 178 190 196 197 197 198 197 190 194 193 199 202 204 199 185 184 197 207 208 210 217 194 190 192 194 190 186 165 155 190 214 216 202 209 215 202 196 195 190 185 187 195 186 190 187 189 195 187 192 186 203 210 222 173 182 184 187 185 214 204 232 224 213 199 205 199 183 186 193 202 153 174 187 196 180
199 201 200 196 193 187 179 177 181 180 183 188 189 198 191 188 187 187 195 195 197 195 195 197 192 192 191 205 208 213 215 199 192 196 194 191 181 169 163 187 207 206 196 194 193 212 202 201 202 196 195 190 186 188 191 195 195 194 176 190 197 221 191 169 195 190 189 197 205 200 219 202 192 193 180 171 194 201 202 199 177 185 192 186 184
192 193 193 192 191 187 181 180 182 189 187 185 183 183 183 187 183 183 186 190 187 191 193 196 199 201 192 204 212 214 214 209 196 195 196 188 177 176 178 200 208 196 192 194 198 199 201 203 201 197 195 193 189 191 194 200 202 187 190 197 206 187 138 177 189 186 188 188 184 184 200 176 190 190 186 181 189 203 208 204 194 198 195 184 180
184 178 175 186 190 184 179 177 177 177 179 171 173 183 189 186 186 186 182 180 189 197 196 192 201 208 206 205 216 222 219 213 187 196 196 187 179 188 183 206 203 187 189 207 207 210 204 195 198 194 193 193 193 193 197 199 204 198 202 206 188 148 166 172 160 167 173 164 160 168 169 178 181 191 194 197 198 198 206 201 203 205 208 201 185
171 171 172 175 187 186 179 172 172 171 170 172 174 186 184 184 184 177 175 178 188 195 194 195 201 213 216 209 213 224 219 214 195 188 197 190 186 194 199 202 189 170 195 210 210 213 206 204 204 190 187 192 194 196 197 200 198 210 206 200 186 174 159 150 150 158 168 172 167 185 188 181 178 193 194 205 208 199 206 204 198 195 207 218 223
160 161 169 173 173 181 180 175 172 168 169 169 179 180 180 180 175 173 174 178 184 192 198 196 202 208 215 218 215 215 211 204 200 193 188 192 191 197 205 209 183 190 198 217 214 213 211 208 202 187 188 191 194 195 197 193 198 208 207 197 184 169 159 151 160 169 174 173 190 195 198 198 195 189 202 207 196 193 196 185 181 186 186 183 186
154 161 168 170 172 175 171 170 170 168 169 167 169 172 170 162 166 175 168 178 183 193 200 197 201 208 213 218 221 219 211 207 202 197 190 189 194 199 206 208 199 191 199 219 218 211 212 208 203 188 187 190 193 193 193 197 202 201 202 191 176 157 171 165 163 159 175 195 197 196 204 201 199 193 146 124 126 118 137 126 128 132 122 121 116
157 166 168 166 166 158 161 169 172 171 167 173 172 173 167 169 173 174 176 181 186 191 196 197 203 208 217 221 223 219 210 209 215 199 193 193 199 205 206 207 207 200 203 213 218 214 210 210 204 193 188 188 177 166 181 193 202 205 201 183 174 177 175 168 163 175 198 192 195 202 203 173 181 154 138 132 138 164 156 154 150 150 152 152 144
152 150 153 147 141 147 152 158 157 157 161 157 159 160 162 166 168 170 175 179 184 192 194 195 200 205 215 222 223 212 195 205 213 208 188 198 203 205 207 221 225 227 260 256 258 228 214 196 179 181 176 175 184 192 193 183 182 185 174 186 191 187 184 182 177 185 187 189 195 206 176 139 112 130 151 156 157 162 173 156 159 157 160 159 157
151 156 152 149 150 152 150 153 151 157 167 161 157 159 166 165 163 173 173 181 182 191 197 195 199 203 213 219 218 201 201 202 204 203 203 197 207 204 204 205 194 199 211 215 215 197 149 127 127 130 130 137 162 148 187 178 182 175 181 180 189 192 195 184 183 194 196 188 169 131 108 147 169 174 153 171 176 163 166 164 156 150 156 142 138
147 144 148 145 154 157 152 160 164 162 169 177 177 172 168 177 183 188 197 182 182 186 196 203 205 211 208 210 205 211 211 210 215 205 195 193 196 198 199 206 204 206 214 210 172 108 116 128 134 140 151 163 182 199 198 184 181 180 173 174 178 180 184 182 189 192 185 168 179 174 171 169 175 168 162 168 182 172 172 155 156 145 137 166 178
137 151 155 159 159 161 164 169 169 166 165 172 177 224 273 207 183 175 204 216 205 197 184 195 203 205 209 214 206 208 216 222 221 196 201 201 202 199 202 198 198 199 209 195 169 159 165 174 179 175 182 182 192 200 198 197 184 176 186 183 177 179 187 191 196 187 173 188 175 171 172 172 172 176 176 186 174 175 184 182 160 160 151 176 181
132 145 160 166 171 170 171 170 177 171 171 168 174 180 193 239 259 241 222 202 203 212 211 214 212 208 197 215 221 223 228 230 213 195 201 199 201 207 211 211 205 204 184 111 100 171 190 188 194 193 190 192 198 202 195 192 195 188 179 175 185 187 189 188 192 177 181 177 182 182 171 178 181 178 179 185 179 173 164 195 143 168 178 170 183
158 175 180 181 175 178 176 174 172 171 177 175 176 174 181 202 237 241 232 235 236 222 220 223 227 219 213 214 217 225 233 235 205 189 194 200 203 206 212 213 204 144 163 167 168 194 197 197 194 201 197 200 208 203 193 194 191 186 177 177 195 189 186 194 185 174 177 169 175 185 180 187 186 180 182 173 172 171 171 168 176 174 179 176 190
195 195 193 182 181 180 176 172 176 173 175 181 185 181 181 187 201 234 270 253 234 229 228 229 231 227 222 224 220 215 215 212 208 202 200 202 203 208 212 208 157 154 142 153 200 204 205 204 207 204 201 206 205 195 195 192 191 189 180 187 194 194 195 185 165 178 181 180 175 183 184 184 179 173 177 158 167 174 176 177 176 175 170 175 184
218 199 191 188 181 184 189 186 182 189 192 188 187 187 195 191 201 203 206 224 287 280 258 238 231 226 226 226 226 229 233 224 212 209 209 206 207 212 178 91 122 159 168 190 194 212 208 211 213 210 208 210 206 197 195 198 194 188 191 201 198 176 177 145 164 177 170 174 179 185 179 176 161 167 172 172 180 177 174 179 172 168 181 184 181
249 244 225 201 190 196 193 191 193 197 195 195 194 194 196 201 200 200 202 195 204 213 218 232 233 216 220 229 233 233 231 229 221 212 207 211 180 118 121 135 127 173 204 219 218 219 218 214 217 213 208 206 207 196 200 197 192 194 198 197 184 168 163 176 185 172 172 172 173 174 172 179 178 185 170 170 166 180 184 177 182 181 176 181 182
243 244 243 225 217 212 206 205 202 200 201 206 205 203 202 199 202 209 209 209 208 212 228 224 217 211 217 226 223 223 228 232 237 221 212 168 144 148 143 187 198 192 197 205 211 218 221 224 224 222 210 211 204 204 200 196 198 201 203 195 184 173 174 178 180 176 176 174 180 180 174 174 173 173 174 182 182 181 177 182 180 187 185 180 181
241 238 241 237 228 224 221 218 213 208 206 206 203 208 211 214 214 215 212 212 212 216 220 219 199 226 224 242 229 192 205 224 198 168 170 175 167 167 197 191 201 193 194 206 210 219 220 227 225 224 214 203 202 203 199 202 201 202 199 196 188 175 181 179 181 180 177 182 181 176 179 182 179 175 172 181 183 192 186 178 180 185 190 188 177
13 343 280 257 236 231 231 223 222 214 214 212 209 207 208 210 212 213 216 216 219 220 231 221 213 214 205 164 142 157 116 116 112 117 140 141 162 203 204 198 184 191 206 212 210 213 219 222 220 217 215 203 201 201 198 201 198 197 191 196 192 197 183 181 179 181 181 179 175 174 172 173 178 177 176 185 187 181 179 181 176 177 190 184 180
57 49 37 19 336 256 228 225 219 215 217 212 214 211 213 214 215 216 217 220 221 226 229 218 210 229 204 140 108 128 126 142 175 188 180 192 197 199 196 194 202 204 206 208 209 215 222 225 221 217 212 200 204 198 194 201 198 199 193 187 188 181 177 182 182 181 176 180 177 172 174 178 175 179 185 181 189 187 186 183 187 184 179 185 192
39 55 42 39 37 31 41 69 86 146 196 194 210 207 207 207 212 215 216 214 216 213 212 213 221 227 139 137 138 153 168 190 201 190 180 194 201 201 194 201 208 206 206 210 207 209 216 224 220 210 207 202 200 198 195 197 194 193 184 186 186 189 191 187 184 180 184 180 173 172 173 177 183 177 177 181 193 183 186 187 190 188 186 183 188
37 47 55 52 44 38 36 35 45 45 54 66 65 63 62 80 134 160 137 149 145 107 60 52 46 351 286 213 171 174 186 205 203 197 189 192 203 207 206 209 208 213 222 223 218 216 219 225 223 214 206 202 204 198 197 194 185 181 187 191 193 196 193 189 183 182 177 171 169 167 174 165 159 166 184 195 187 182 189 183 184 186 189 185 176
33 31 38 48 52 48 47 34 17 25 44 50 52 57 59 58 50 51 52 57 56 64 76 58 37 356 353 18 143 218 291 332 90 159 171 190 211 220 226 226 226 210 188 207 208 212 212 210 208 195 193 198 202 203 194 192 190 192 189 189 193 196 191 188 182 174 169 170 170 172 172 170 173 184 188 178 181 189 183 185 188 183 183 181 176
36 35 30 43 48 51 50 40 28 37 33 39 41 43 51 56 59 57 57 53 51 54 61 53 30 10 8 10 52 53 23 10 359 147 148 176 207 232 230 230 261 39 28 232 208 204 198 193 195 192 184 189 189 187 186 192 188 186 184 187 191 197 200 191 181 180 175 166 166 159 154 160 164 174 173 169 179 182 190 187 185 182 183 176 174
36 34 34 39 42 44 42 45 40 40 42 39 45 43 39 43 44 49 54 54 54 57 59 54 42 34 30 24 28 35 39 23 25 25 107 173 206 216 219 196 183 179 252 280 257 196 184 185 185 186 173 174 174 168 171 176 178 177 173 179 187 185 180 177 182 179 173 168 159 145 148 158 163 166 167 166 167 176 183 183 184 184 176 176 169
33 34 35 40 36 39 37 36 39 40 39 36 35 43 43 41 46 45 47 53 50 54 52 54 48 47 38 33 35 41 46 58 102 192 197 203 220 235 235 217 201 200 200 193 181 169 168 176 175 172 181 182 172 175 176 177 174 171 173 170 168 174 181 180 186 180 167 154 145 143 154 156 162 171 174 176 178 178 178 184 184 174 166 166 170
33 33 34 35 35 37 35 35 33 39 38 35 34 39 38 36 42 44 47 47 49 51 51 45 43 46 51 53 50 58 63 83 37 359 314 287 251 268 286 294 303 303 294 283 277 255 220 194 188 194 191 188 182 182 183 183 183 182 181 181 182 183 180 179 167 157 164 160 157 159 168 166 173 174 180 176 182 182 183 177 175 176 178 179 190
32 34 32 34 35 36 34 33 35 34 37 35 35 35 36 33 30 36 44 43 41 40 41 40 36 30 24 26 22 23 29 32 29 330 295 293 310 317 341 358 348 297 272 256 239 233 230 220 218 210 207 207 207 199 191 184 180 182 182 182 187 189 188 173 165 166 171 175 164 163 171 170 169 168 173 172 174 184 177 176 178 179 181 185 188
30 32 32 31 33 35 32 32 34 34 35 35 36 39 39 35 35 34 32 34 34 33 33 34 35 33 32 27 22 19 14 10 8 9 4 350 347 348 352 359 352 341 334 321 313 291 256 240 241 236 228 215 204 199 196 182 179 182 194 194 190 178 159 160 173 177 164 157 163 169 170 166 165 164 166 174 184 177 176 181 177 180 182 186 188
31 32 33 30 32 31 31 30 31 30 29 29 33 34 32 34 32 31 30 31 32 31 32 32 32 33 35 30 26 26 23 22 21 13 15 20 32 39 38 31 6 359 33 29 348 340 269 149 158 158 171 168 168 162 158 154 155 156 154 158 144 138 147 152 146 150 132 132 144 155 148 152 157 164 165 175 184 182 185 177 178 180 182 182 184
31 31 34 32 33 30 29 34 34 33 29 31 33 31 27 31 30 27 27 29 30 29 28 29 31 30 31 27 25 24 23 24 17 19 17 16 21 39 81 80 58 45 86 112 83 45 29 37 65 93 106 114 113 114 127 143 149 158 160 152 144 143 151 150 144 142 142 153 157 167 161 164 161 162 167 176 179 178 178 182 180 177 179 181 185
28 30 33 33 34 32 32 32 31 31 31 32 31 32 30 31 30 27 26 29 29 28 27 28 28 28 30 29 28 28 27 29 26 23 21 15 2 354 355 21 40 48 56 67 92 88 91 78 77 76 91 91 88 104 117 132 140 133 134 146 149 149 151 155 155 159 154 149 155 150 157 160 160 161 167 173 173 178 185 176 174 176 180 180 180